• In Switzerland
  • List of Countries
  • For 7 days
  • Water Temperature
  • Satellite Maps
  • Weather Map
  • Weather Widgets
  • user-avatar
    Login

    Hourly Weather Chester

    Today, 14 December, Thursday

    Time Temperature Precipitation Wind Pressure Humidity
    00:00 0°C° 0 mm 7 mps 740 mmHg 80%
    01:00 +2°C° 0.2 mm 7 mps 740 mmHg 80%
    02:00 +2°C° 0.2 mm 7 mps 740 mmHg 80%
    03:00 +1°C° 0.2 mm 8 mps 740 mmHg 80%
    04:00 +2°C° 0.3 mm 7 mps 740 mmHg 80%
    05:00 +2°C° 0.3 mm 7 mps 740 mmHg 79%
    06:00 +1°C° 0 mm 6 mps 740 mmHg 83%
    07:00 +1°C° 0.1 mm 6 mps 740 mmHg 82%
    08:00 0°C° 0.1 mm 7 mps 740 mmHg 81%
    09:00 0°C° 0.1 mm 7 mps 740 mmHg 80%
    10:00 +2°C° 0 mm 7 mps 739 mmHg 78%
    11:00 +3°C° 0 mm 7 mps 739 mmHg 77%
    12:00 +4°C° 0 mm 7 mps 738 mmHg 76%
    13:00 +3°C° 0.1 mm 7 mps 738 mmHg 77%
    14:00 +3°C° 0.1 mm 6 mps 737 mmHg 78%
    15:00 +3°C° 0.1 mm 6 mps 737 mmHg 79%
    16:00 +3°C° 0.3 mm 6 mps 737 mmHg 81%
    17:00 +3°C° 0.3 mm 6 mps 737 mmHg 82%
    18:00 +2°C° 0.3 mm 5 mps 737 mmHg 84%
    19:00 +2°C° 0.2 mm 6 mps 738 mmHg 82%
    20:00 +3°C° 0.2 mm 6 mps 738 mmHg 80%
    21:00 +3°C° 0.2 mm 6 mps 739 mmHg 78%
    22:00 +3°C° 0.4 mm 6 mps 739 mmHg 80%
    23:00 +3°C° 0.4 mm 6 mps 739 mmHg 82%

    Tomorrow, 15 December, Friday

    Time Temperature Precipitation Wind Pressure Humidity
    00:00 +3°C° 0.4 mm 6 mps 740 mmHg 84%
    01:00 +2°C° 0.5 mm 6 mps 740 mmHg 84%
    02:00 +2°C° 0.5 mm 6 mps 741 mmHg 84%
    03:00 +2°C° 0.5 mm 6 mps 742 mmHg 84%
    04:00 +2°C° 0 mm 6 mps 743 mmHg 83%
    05:00 +1°C° 0 mm 6 mps 744 mmHg 83%
    06:00 +1°C° 0 mm 6 mps 745 mmHg 83%
    07:00 +1°C° 0 mm 6 mps 747 mmHg 82%
    08:00 +1°C° 0 mm 5 mps 748 mmHg 81%
    09:00 +1°C° 0 mm 5 mps 749 mmHg 81%
    10:00 +2°C° 0 mm 5 mps 750 mmHg 80%
    11:00 +3°C° 0 mm 5 mps 751 mmHg 79%
    12:00 +3°C° 0 mm 6 mps 752 mmHg 78%
    13:00 +3°C° 0 mm 6 mps 752 mmHg 79%
    14:00 +3°C° 0 mm 6 mps 753 mmHg 79%
    15:00 +3°C° 0 mm 6 mps 754 mmHg 80%
    16:00 +2°C° 0 mm 6 mps 755 mmHg 81%
    17:00 +2°C° 0 mm 5 mps 756 mmHg 81%
    18:00 +1°C° 0 mm 5 mps 757 mmHg 81%
    19:00 +1°C° 0 mm 4 mps 757 mmHg 81%
    20:00 +1°C° 0 mm 4 mps 758 mmHg 80%
    21:00 0°C° 0 mm 4 mps 759 mmHg 80%
    22:00 0°C° 0 mm 4 mps 759 mmHg 79%
    23:00 0°C° 0 mm 4 mps 759 mmHg 79%

    Day after tomorrow, 16 December, Saturday

    Time Temperature Precipitation Wind Pressure Humidity
    00:00 0°C° 0 mm 4 mps 760 mmHg 79%
    01:00 0°C° 0 mm 4 mps 760 mmHg 79%
    02:00 0°C° 0 mm 4 mps 760 mmHg 79%
    03:00 0°C° 0 mm 4 mps 761 mmHg 79%
    04:00 0°C° 0.1 mm 4 mps 761 mmHg 79%
    05:00 0°C° 0.1 mm 4 mps 761 mmHg 79%
    06:00 0°C° 0.1 mm 4 mps 761 mmHg 80%
    07:00 +2°C° 0.1 mm 3 mps 762 mmHg 80%
    08:00 +2°C° 0.1 mm 3 mps 762 mmHg 80%
    09:00 +2°C° 0.1 mm 3 mps 763 mmHg 80%
    10:00 +3°C° 0 mm 3 mps 763 mmHg 77%
    11:00 +3°C° 0 mm 3 mps 763 mmHg 74%
    12:00 +5°C° 0 mm 2 mps 763 mmHg 71%
    13:00 +5°C° 0 mm 2 mps 764 mmHg 73%
    14:00 +4°C° 0 mm 2 mps 764 mmHg 76%
    15:00 +4°C° 0 mm 2 mps 764 mmHg 78%
    16:00 +4°C° 0.1 mm 2 mps 764 mmHg 81%
    17:00 +3°C° 0.1 mm 3 mps 765 mmHg 84%
    18:00 +3°C° 0.1 mm 3 mps 765 mmHg 87%
    19:00 +3°C° 0.1 mm 3 mps 766 mmHg 88%
    20:00 +3°C° 0.1 mm 3 mps 766 mmHg 89%
    21:00 +3°C° 0.1 mm 3 mps 767 mmHg 90%
    22:00 +3°C° 0.1 mm 3 mps 767 mmHg 90%
    23:00 +3°C° 0.1 mm 3 mps 767 mmHg 91%

    17 December, Sunday

    Time Temperature Precipitation Wind Pressure Humidity
    00:00 +4°C° 0.1 mm 2 mps 767 mmHg 91%
    01:00 +3°C° 0 mm 3 mps 767 mmHg 92%
    02:00 +3°C° 0 mm 3 mps 767 mmHg 92%
    03:00 +3°C° 0 mm 3 mps 767 mmHg 93%
    04:00 +3°C° 0 mm 3 mps 767 mmHg 93%
    05:00 +4°C° 0 mm 3 mps 767 mmHg 93%
    06:00 +4°C° 0 mm 3 mps 767 mmHg 93%
    07:00 +4°C° 0 mm 3 mps 768 mmHg 93%
    08:00 +4°C° 0 mm 4 mps 768 mmHg 93%
    09:00 +4°C° 0 mm 4 mps 768 mmHg 93%
    10:00 +5°C° 0 mm 4 mps 768 mmHg 92%
    11:00 +6°C° 0 mm 4 mps 767 mmHg 91%
    12:00 +6°C° 0 mm 4 mps 767 mmHg 89%
    13:00 +7°C° 0 mm 5 mps 767 mmHg 89%
    14:00 +7°C° 0 mm 6 mps 767 mmHg 89%
    15:00 +7°C° 0 mm 6 mps 767 mmHg 89%
    16:00 +7°C° 0 mm 6 mps 767 mmHg 89%
    17:00 +7°C° 0 mm 6 mps 767 mmHg 89%
    18:00 +7°C° 0 mm 6 mps 767 mmHg 89%
    19:00 +7°C° 0 mm 6 mps 767 mmHg 90%
    20:00 +7°C° 0 mm 5 mps 767 mmHg 90%
    21:00 +7°C° 0 mm 5 mps 767 mmHg 91%
    22:00 +7°C° 0 mm 5 mps 767 mmHg 91%
    23:00 +7°C° 0 mm 5 mps 767 mmHg 92%

    18 December, Monday

    Time Temperature Precipitation Wind Pressure Humidity
    00:00 +8°C° 0 mm 5 mps 767 mmHg 92%
    01:00 +8°C° 0.1 mm 5 mps 767 mmHg 93%
    02:00 +8°C° 0.1 mm 5 mps 767 mmHg 93%
    03:00 +8°C° 0.1 mm 5 mps 767 mmHg 94%
    04:00 +8°C° 0.2 mm 4 mps 767 mmHg 94%
    05:00 +10°C° 0.2 mm 4 mps 767 mmHg 94%
    06:00 +10°C° 0.2 mm 4 mps 767 mmHg 94%
    07:00 +10°C° 0.2 mm 4 mps 768 mmHg 94%
    08:00 +10°C° 0.2 mm 4 mps 768 mmHg 94%
    09:00 +10°C° 0.2 mm 4 mps 768 mmHg 94%
    10:00 +11°C° 0 mm 4 mps 768 mmHg 94%
    11:00 +11°C° 0 mm 4 mps 769 mmHg 93%
    12:00 +11°C° 0 mm 4 mps 769 mmHg 92%
    13:00 +11°C° 0 mm 3 mps 769 mmHg 93%
    14:00 +11°C° 0 mm 3 mps 768 mmHg 93%
    15:00 +12°C° 0 mm 2 mps 768 mmHg 94%
    16:00 +12°C° 0 mm 2 mps 769 mmHg 94%
    17:00 +12°C° 0 mm 2 mps 769 mmHg 95%
    18:00 +12°C° 0 mm 2 mps 769 mmHg 96%
    19:00 +12°C° 0 mm 2 mps 769 mmHg 96%
    20:00 +12°C° 0 mm 2 mps 770 mmHg 96%
    21:00 +12°C° 0 mm 2 mps 770 mmHg 96%
    22:00 +12°C° 0 mm 2 mps 770 mmHg 96%
    23:00 +12°C° 0 mm 2 mps 770 mmHg 96%

    19 December, Tuesday

    Time Temperature Precipitation Wind Pressure Humidity
    00:00 +11°C° 0 mm 3 mps 770 mmHg 96%
    01:00 +11°C° 0.1 mm 3 mps 770 mmHg 96%
    02:00 +11°C° 0.1 mm 3 mps 770 mmHg 96%
    03:00 +11°C° 0.1 mm 3 mps 770 mmHg 95%
    04:00 +11°C° 0.1 mm 3 mps 770 mmHg 96%
    05:00 +11°C° 0.1 mm 3 mps 770 mmHg 96%
    06:00 +11°C° 0.1 mm 3 mps 770 mmHg 96%
    07:00 +11°C° 0 mm 3 mps 770 mmHg 96%
    08:00 +11°C° 0 mm 3 mps 770 mmHg 96%
    09:00 +11°C° 0 mm 3 mps 770 mmHg 96%
    10:00 +12°C° 0 mm 3 mps 770 mmHg 94%
    11:00 +12°C° 0 mm 3 mps 770 mmHg 92%
    12:00 +13°C° 0 mm 4 mps 770 mmHg 91%
    13:00 +13°C° 0 mm 4 mps 770 mmHg 91%
    14:00 +13°C° 0 mm 4 mps 770 mmHg 91%
    15:00 +13°C° 0 mm 4 mps 770 mmHg 92%
    16:00 +12°C° 0 mm 4 mps 770 mmHg 92%
    17:00 +12°C° 0 mm 4 mps 770 mmHg 93%
    18:00 +11°C° 0 mm 4 mps 770 mmHg 94%
    19:00 +12°C° 0.1 mm 4 mps 770 mmHg 93%
    20:00 +12°C° 0.1 mm 4 mps 770 mmHg 93%
    21:00 +12°C° 0.1 mm 5 mps 770 mmHg 93%
    22:00 +12°C° 0.2 mm 4 mps 770 mmHg 93%
    23:00 +12°C° 0.2 mm 4 mps 770 mmHg 93%
    Show more